Skip Page Navigation
NASA JPL Caltech
NASA Logo - Jet Propulsion Laboratory + View the NASA Portal
+ Center for Near-Earth Object Studies
JPL Home Earth Solar System Stars & Galaxies Technology
JPL Solar System Dynamics
BODIES ORBITS EPHEMERIDES TOOLS PHYSICAL DATA DISCOVERY FAQ SITE MAP
IMPORTANT: The SSD Announcement email list is now available. Major changes are coming in the near future, including possible hostname and/or URL changes. To be notified of such changes, subscribe to this email list.

Please visit this page for more details.


JPL Small-Body Database Browser
Search: [ help ]  
233247 (2005 YA115)
Classification: Main-belt Asteroid          SPK-ID: 2233247
Ephemeris | Orbit Diagram | Orbital Elements | Mission Design | Physical Parameters | Discovery Circumstances | Close-Approach Data ]

[ show orbit diagram ]
Orbital Elements at Epoch 2458600.5 (2019-Apr-27.0) TDB
Reference: JPL 15 (heliocentric ecliptic J2000)
 Element Value Uncertainty (1-sigma)   Units 
e .1014174788166495 7.4732e-08  
a 2.745047297014543 2.8347e-08 au
q 2.46665152091887 2.0398e-07 au
i 2.521789491986442 7.1322e-06 deg
node 48.30526377705197 0.00013468 deg
peri 326.5416014168483 0.00013712 deg
M 63.6076195523351 2.6762e-05 deg
tp 2458306.985327169920
(2018-Jul-07.48532717)
0.00012315 TDB
period 1661.204789025147
4.55
2.5732e-05
7.045e-08
d
yr
n .216710186714102 3.3568e-09 deg/d
Q 3.023443073110217 3.1222e-08 au
  Orbit Determination Parameters
   # obs. used (total)      254  
   data-arc span      6143 days (16.82 yr)  
   first obs. used      2002-03-05  
   last obs. used      2018-12-29  
   planetary ephem.      DE431  
   SB-pert. ephem.      SB431-N16  
   condition code      0  
   norm. resid. RMS      .52789  
   source      ORB  
   producer      Otto Matic  
   solution date      2019-Jul-14 10:09:25  

Additional Information
 Earth MOID = 1.46723 au 
 Jupiter MOID = 2.43547 au 
 T_jup = 3.339 
[ show covariance matrix ]

Ephemeris | Orbit Diagram | Orbital Elements | Mission Design | Physical Parameters | Discovery Circumstances | Close-Approach Data ]

Physical Parameter Table
Parameter Symbol Value Units Sigma Reference Notes
absolute magnitude H 16.4   n/a MPO454687  
diameter diameter 3.343 km 0.327 urn:nasa:pds:neowise_diameters_albedos::2.0[mainbelt] (http://adsabs.harvard.edu/abs/2011ApJ...741...68M)  
geometric albedo albedo 0.040   0.014 urn:nasa:pds:neowise_diameters_albedos::2.0[mainbelt] (http://adsabs.harvard.edu/abs/2011ApJ...741...68M)  

233247 (2005 YA115)          Discovered 2005-Dec-25 by Spacewatch at Kitt Peak
Reference: 20100228/Numbers.arcLast Updated: 2010-03-03

[ show close-approach data ]
Ephemeris | Orbit Diagram | Orbital Elements | Mission Design | Physical Parameters | Discovery Circumstances | Close-Approach Data ]
ABOUT SSD CREDITS/AWARDS PRIVACY/COPYRIGHT GLOSSARY LINKS
FirstGov 2019-Dec-06 21:15 UT
(server date/time)  
NASA Home Page
Site Manager:   Ryan S. Park
Webmaster  Alan B. Chamberlin